CAPE
6 38 3 1 1 6 18 25 27 190 86 378 368 672 602 433 426 661 703 691 681 696 1015 296 130 123 597 226 379 474 522 486 1008 310 258 687 906 1295 1261 1427 1600 1746 1805 1887 2031 1729 1800 1601 2298 2720 2746 2723 2653 2756 2744 2761 2692 2672 2650 2731 2680 2753 2958 2866 2757 2712 2563 2808 2899 3034 3041 2885 2871 2906 2968 2969 2984 2912 2957 3046 2958 2902 2773 2942 2902 2708 2734 2764 2837 2958 2859 2938 2972 2590 2448 2728 2880
35 6 0 27 1 50 120 110 131 107 142 356 376 699 678 610 806 584 595 932 803 981 913 545 639 917 740 718 551 313 454 616 769 569 484 710 841 1109 1270 1520 1648 1755 1824 1856 2011 1856 1993 2049 2469 2812 2642 2559 2639 2766 2708 2688 2689 2908 3024 3083 3103 3069 3110 3172 3056 3072 2934 2908 2863 2848 2769 2798 2806 2267 1926 2101 2184 2008 2087 2526 2245 2207 2390 2666 2742 2391 2530 2566 2409 2576 2442 2383 2328 2387 2368 2566 2615
22 0 0 1 63 96 117 82 139 344 362 252 314 573 724 704 596 624 1035 1257 1110 960 729 757 866 1115 694 674 716 1119 421 410 452 509 734 882 924 1163 1380 1628 1735 1810 1886 2092 2084 2404 2441 2449 2812 2780 2557 2663 2700 2821 2966 3002 2997 2972 3050 3076 3098 3045 3000 3000 3001 2974 2886 2907 2780 2749 2634 2391 2137 1904 1805 1882 1739 1946 1792 1921 1938 1957 2030 2244 2197 2285 2554 2261 2356 2341 2391 2186 2030 1955 2213 2304 2324
15 0 4 170 255 235 268 224 428 257 350 337 472 637 670 649 600 778 1125 914 871 661 606 727 903 529 1142 821 698 431 456 482 449 602 593 940 1219 1125 1471 1638 1921 1880 1969 2006 2303 2445 2372 2721 2807 2792 2590 2723 2886 2917 2902 2932 3029 2970 2895 3049 3000 3016 2934 2884 2966 2890 2873 2640 2270 2040 1765 1818 1393 1236 1437 1708 1841 1810 1620 1614 1816 1928 1909 2133 2161 2344 2364 2113 2077 2192 2280 2142 1842 2028 1957 2198 2043
2 3 26 131 222 262 274 328 416 510 215 418 403 632 750 690 764 847 787 828 753 835 836 774 608 837 1004 659 714 810 639 534 512 551 578 923 892 1221 1534 1682 1808 1856 1895 2154 2301 2315 2566 2763 2794 2613 2651 2750 2854 2947 2902 2965 2926 2894 2837 3026 2915 2665 2728 2824 2830 2834 2665 2131 1878 1713 1710 1516 1154 1543 1340 1565 1652 1599 1800 1795 1472 1487 1612 1855 1988 2242 2159 2269 2250 2261 2166 2186 2319 2220 2209 1770 1859
0 36 62 150 482 398 338 405 579 451 583 690 589 652 848 869 894 854 812 988 942 772 925 934 816 721 777 688 630 450 416 548 568 705 786 971 1166 1220 1483 1740 1771 1754 1870 2156 2262 2460 2597 2770 2872 2810 2804 2886 2874 2910 2777 2758 2658 2709 2488 2391 2557 2339 2638 2651 2563 2399 2354 1822 1261 1459 1604 1284 1738 1670 1535 1658 1832 1562 1469 1385 1468 1413 1749 1795 1994 2084 2262 2271 2339 2180 2301 2146 2350 2142 1958 2009 2172
8 86 237 431 620 698 425 401 374 492 725 695 746 796 803 1012 1024 965 788 814 983 907 1176 766 678 578 673 507 628 437 709 533 696 702 913 1002 1159 1390 1355 1670 1618 1849 1930 2095 2252 2430 2360 2901 2808 2896 2763 2821 2838 2721 2673 2649 2714 2558 2452 2394 2479 2506 2454 2586 2563 2369 1794 1854 1658 1580 1574 1586 1578 1721 1674 1692 1958 1786 1624 1566 1642 1392 1647 1713 1709 1996 2094 2212 2312 2321 2177 2357 2187 2022 2154 2158 1882
136 653 525 354 493 621 482 509 571 621 819 1100 1034 1015 994 1030 966 965 780 673 679 746 771 656 923 1038 562 365 665 812 740 725 819 912 940 1102 1257 1442 1408 1508 1557 1726 1790 2126 2436 2387 2777 2833 2862 2801 2727 2649 2615 2617 2518 2590 2551 2506 2479 2276 2373 2334 2536 2563 2594 2180 1934 1604 1440 1474 1417 1491 1599 1727 1630 1524 1897 1882 1621 1823 1534 1609 1507 1614 1720 2024 2011 2512 2606 2606 2321 2088 2078 2118 2059 2064 2081
292 383 531 627 558 784 430 414 508 801 874 964 1044 1152 950 1026 919 947 987 1054 769 871 803 705 562 788 589 629 806 743 866 956 960 1024 966 1176 1315 1334 1362 1354 1455 1564 1687 1918 2245 2284 2514 2878 2835 2656 2466 2640 2604 2529 2491 2514 2500 2479 2245 2290 2319 2420 2528 2466 2454 2223 1902 1718 1586 1757 1575 1536 1642 1912 1896 1584 1946 1822 1739 1841 1434 1274 1424 1570 1632 1734 2115 2121 2563 2242 2275 2234 2248 2230 2184 2208 2070
390 422 541 578 289 317 393 425 538 830 962 1094 1318 1162 1166 1106 1022 991 987 985 971 844 879 720 553 831 598 614 497 693 801 999 908 888 1023 1175 1239 1330 1328 1399 1527 1534 1663 2006 2151 2208 2450 2917 2799 2600 2598 2591 2568 2510 2463 2381 2230 2246 2408 2301 2288 2413 2284 2478 2140 2118 1913 1997 1931 1771 1742 1606 1600 1902 1996 2048 2008 1807 1804 1961 1646 1891 1732 1862 1684 1649 1438 1873 2040 2245 2307 2251 2264 2172 2264 2025 2015
734 447 312 488 255 323 494 377 678 1038 1250 1328 1382 1110 1325 1142 986 1134 1162 995 843 861 486 452 638 641 454 556 786 971 982 885 752 791 1034 1220 1229 1194 1235 1481 1514 1569 1640 1904 2150 2156 2492 2566 2728 2659 2607 2530 2456 2510 2365 2406 2200 2259 2298 2258 2176 1980 2293 2280 2168 1962 2042 1910 1983 2187 2211 1964 1859 1857 1918 1868 1929 1940 1885 1915 1921 1856 2091 1998 1612 1627 1736 2272 2286 2377 2392 2287 2192 2119 2257 2130 2304
590 636 671 391 320 333 514 644 786 890 1268 1382 1156 1389 1165 1154 985 949 926 953 768 628 617 461 664 542 535 520 521 741 730 779 674 765 1076 1126 1144 1114 1311 1390 1492 1543 1672 1930 2123 2271 2404 2548 2632 2666 2500 2496 2516 2479 2503 2419 2195 2088 2205 2314 2210 2292 2285 2242 2062 2294 2099 2005 2092 2158 2086 2064 1903 1810 1948 1908 1990 1930 1754 1912 1775 1858 1878 1832 1620 1678 2069 2089 2298 2307 2356 2236 2096 2238 2132 2083 2094
250 669 520 328 374 313 534 616 872 1252 1042 1387 1175 1666 1313 965 1008 1105 1194 1083 827 784 550 845 571 582 472 592 662 667 540 683 680 627 968 1067 1108 1015 1274 1358 1378 1572 1719 2024 2062 2144 2286 2406 2367 2562 2302 2336 2495 2548 2489 2294 2250 2148 2121 1816 1932 2242 2141 1994 2003 2095 1911 2033 1732 1873 2098 2009 1958 1841 1812 1965 2004 1833 1960 2019 1868 1920 1954 1742 1691 1813 2097 2144 2224 2251 2367 2339 2010 2190 2190 2166 2273
422 820 440 366 188 421 552 787 962 933 1273 1198 1753 1627 1300 1284 1101 1293 1056 978 814 904 664 634 546 660 576 385 468 440 506 607 612 737 766 1061 1082 1055 1128 1205 1413 1487 1745 1862 1982 2049 2064 2220 2284 2400 2356 2421 2790 2560 2293 2008 1824 2092 1989 1927 2210 2142 2136 2184 1926 2002 2026 1888 2040 1950 1920 1836 1849 1870 1862 1929 1951 1978 2029 1753 1819 1928 1751 1710 1619 2112 1999 2049 2257 2483 2331 2151 2224 2243 2212 2236 2322
508 886 751 348 353 403 651 630 659 844 1088 1251 1422 1363 1293 1660 1137 1031 1150 1018 893 733 550 467 595 532 570 396 253 377 563 576 580 665 890 1006 1038 1064 1097 1156 1347 1487 1626 1730 1842 1873 2052 2161 2298 2178 2490 2481 2646 2773 2950 2168 2075 2031 2049 1772 1892 2280 2242 2097 1879 1709 1769 1638 1773 1651 1771 1828 1823 1846 1795 1895 1895 1982 1899 1737 1668 1846 1759 1553 1614 2050 2083 2104 2204 2281 2273 2105 2156 2331 2416 2344 2286
726 780 761 442 402 498 548 594 639 735 1009 1396 1284 1378 1540 1523 1078 1190 1371 2109 779 504 437 452 397 448 489 282 314 526 514 553 574 614 869 966 925 982 1016 1214 1196 1394 1636 1683 1840 1940 2095 2234 2272 2310 2710 2514 2490 2682 2907 2455 2145 2018 1732 1958 2088 2059 2117 1968 1871 1890 1738 1911 1737 1580 1463 1983 1898 1921 1790 1919 1907 1973 1866 1983 2019 2059 1879 1625 1261 1869 2233 2191 2172 2130 2157 2283 2373 2304 2472 2393 2148
607 769 650 470 439 448 395 629 672 394 1144 1497 1210 1421 1309 1198 1497 1355 1836 1162 725 496 419 312 354 305 529 505 472 623 605 510 630 688 860 906 924 828 999 1191 1159 1381 1446 1660 1714 1914 2096 2241 2099 2140 2379 2287 2453 2544 2725 2678 2228 2049 2024 1890 2098 2160 1999 2111 2024 1893 1892 1738 1767 1614 1798 2256 2532 2436 2402 2002 2121 2174 1834 1934 2066 2000 1866 1864 1751 1999 2328 2359 2340 2216 2318 2494 2344 2190 2321 2474 2207
687 680 539 423 332 491 340 536 500 466 1570 1296 1346 1462 1457 1255 1156 1330 1270 944 890 739 563 434 506 585 596 546 570 571 439 564 619 609 650 686 755 702 866 1023 949 1014 1224 1397 1870 1980 1965 2212 2201 2397 2408 2389 2459 2650 2350 2198 2452 2036 2809 2705 2636 2327 1999 2174 2358 2375 2237 2492 2014 1944 2138 2230 2356 2430 1970 1852 2410 2153 1976 1736 1894 2004 2056 1826 2181 2179 2241 2296 2344 2318 2282 2256 2277 2481 2347 2895 2518
777 613 431 525 288 272 251 304 516 879 1292 1552 1497 1589 1447 1316 1165 1289 1090 886 846 722 560 558 441 470 537 542 514 479 516 538 563 520 490 532 512 507 722 806 869 1042 1299 1439 1693 1850 2070 2006 2395 2218 2213 2695 2609 2337 2063 2417 2096 2299 2648 2531 2392 2133 2497 2787 2739 2594 2892 2767 2698 2169 2067 1684 1929 1951 1704 1693 2319 2059 1704 1705 1748 1722 2007 1879 2263 2235 2265 2204 2124 2336 2211 2428 2269 2197 2968 2995 2705
755 557 371 460 374 236 198 163 676 718 1704 1805 1491 1563 1334 1477 1101 1151 1239 960 822 768 432 455 391 377 400 488 323 447 456 500 564 518 433 458 517 485 525 600 724 1076 1186 1419 1696 1779 1945 1893 2467 2250 2243 2402 2296 2243 2076 2330 2040 2146 2542 2517 2636 2638 2713 2784 2728 2622 2612 2736 2570 2267 1923 1612 1693 1854 1322 1596 1963 2402 2075 1761 1772 1779 1883 2000 2436 2667 2277 2486 2279 2550 2368 2108 2165 2371 2784 2742 2576
480 502 493 495 206 209 212 239 681 1230 1733 1756 1738 1666 1076 1274 1011 1116 1084 792 661 874 467 510 446 386 393 329 252 482 406 468 523 463 478 440 497 439 579 605 662 1047 1152 1380 1643 1813 1899 1904 1990 2318 2302 2248 2321 2399 2213 2183 2222 2386 2554 2592 2651 2808 2759 2536 2380 2565 2599 2591 2253 2126 1866 1922 2006 2011 1536 1466 1951 2328 2051 2439 2542 2527 2612 2634 2654 2993 2922 2459 2544 2284 1935 2057 2120 2322 2562 2560 2825
42 519 639 561 504 164 134 176 577 1125 1463 2128 1848 1550 1464 1345 1118 1155 923 1013 1028 964 472 504 461 338 354 261 275 449 401 408 377 436 475 449 391 458 641 729 783 943 1191 1308 1483 1646 1822 1870 1847 1963 2039 2460 2224 2226 2154 2475 2499 2418 2567 2685 2703 2717 2638 2646 2610 2608 2566 2311 2085 2056 2060 2172 2406 2420 2166 2124 2381 2592 2868 2651 2411 2425 2613 2440 2239 2292 2214 2327 2082 2032 2162 2313 2402 2472 2253 2378 2491
187 43 70 132 121 125 131 164 953 1072 1537 1690 1838 1694 1562 1291 1029 1039 865 1146 996 717 414 488 494 426 307 266 226 458 402 382 473 441 494 485 494 554 496 495 600 704 1047 1185 1380 1618 1677 1737 1840 1931 1926 2076 2142 2193 2134 2316 2087 2088 2494 2544 2571 2595 2618 2518 2621 2574 2587 2352 2058 1987 1738 1904 2308 2517 2525 2518 2524 2651 2757 2624 2299 1969 1938 2040 1975 1903 2056 2008 2041 2199 2325 2464 2589 2356 2314 2335 2513
22 78 113 119 116 113 130 172 712 842 1231 1764 1721 1622 1594 1237 1180 1088 941 802 780 588 402 463 462 424 330 348 300 393 334 443 419 468 479 521 515 505 515 595 661 960 1062 1138 1226 1465 1778 1595 1711 1912 1898 1958 1999 2091 2115 1986 2108 1916 2059 2381 2382 2338 2266 2268 2354 2478 2613 2473 2437 2242 1890 1827 2018 2255 2478 2446 2469 2592 2669 2625 2106 1866 1837 2008 2039 1852 1722 1840 2142 2276 2358 2579 2796 2687 2326 2394 2234
27 89 109 70 19 9 48 122 142 719 1046 1539 1542 1524 1733 1271 1460 1014 998 703 780 464 426 448 378 386 404 452 456 495 382 444 479 474 518 525 521 528 607 698 773 887 984 1062 1124 1320 1456 1505 1583 1694 1862 1947 1880 1849 1899 1960 2004 1934 2090 2082 2221 2367 2180 2163 2254 2484 2519 2496 2524 2533 2083 1766 2205 2043 1865 2183 2110 2310 2256 1945 1752 1716 1881 2012 2066 2005 1981 1934 2022 2145 2399 2827 2881 2893 2728 2831 2477
18 103 4 0 0 0 0 0 95 708 1051 1350 1498 1424 1467 1305 897 1043 1071 742 560 499 393 420 338 298 365 450 510 493 379 430 442 486 519 574 478 541 646 620 623 748 902 1110 1120 1161 1376 1398 1436 1502 1708 1742 1710 1562 1810 1921 1922 1920 2023 2032 2100 2385 2000 2014 2212 2123 2404 2529 2530 2599 2425 2407 2199 2145 1879 1950 1877 1959 1872 1838 1872 1838 2015 1940 2081 1973 2349 2070 2068 2219 2550 2943 2968 2882 2769 2741 2694
0 79 0 0 0 0 0 0 44 706 999 1282 1298 1294 1299 995 929 1207 1079 767 529 483 394 405 323 282 308 400 495 497 512 448 462 477 553 567 507 558 553 548 544 678 878 1047 1077 1167 1342 1399 1390 1476 1622 1802 1636 1564 1696 1860 1940 1874 1970 2017 2025 2165 2049 2141 2046 1914 2228 2451 2363 2830 2762 2632 2084 2005 1862 1845 1958 1885 1918 1963 2022 2052 1955 1959 2132 2152 2240 2327 2345 2368 2753 3044 3114 3009 2832 2769 2606
0 109 0 0 0 0 0 0 29 818 1026 1177 1100 1214 1190 925 801 1159 1176 770 616 557 474 465 380 286 323 354 527 597 553 513 531 586 562 521 539 528 572 597 524 650 756 938 1149 1283 1328 1315 1379 1436 1523 1572 1517 1484 1720 1631 1808 1766 1999 1971 1948 2149 2127 1977 1905 1883 2074 2531 2378 2106 2391 2180 2190 2036 1978 1941 1870 1979 2021 1891 2067 1960 2006 2200 2227 2216 2392 2578 2650 2792 3130 3444 3303 3220 3014 2929 2710
0 114 0 0 0 0 0 2 287 508 1068 1027 962 996 1071 1074 1034 946 1121 739 669 619 599 601 416 310 336 367 496 511 566 521 584 677 629 604 496 490 576 574 527 579 794 938 1098 1214 1262 1331 1280 1469 1500 1612 1454 1493 1494 1465 1651 1678 1853 1798 1977 2046 2185 2127 2111 2226 2316 2461 2730 2523 2148 2154 2208 2173 2032 1914 1817 1899 1995 2018 1996 2088 2164 2219 2395 2528 2552 2657 2896 2790 2942 3068 3080 2944 2808 2745 2686
0 0 0 0 0 0 1 673 543 508 1112 970 682 657 739 1188 1045 913 1097 706 704 700 695 678 578 442 349 359 460 502 522 586 730 727 796 690 500 404 472 555 550 611 949 1212 1077 1151 1261 1344 1330 1385 1376 1447 1416 1425 1519 1536 1632 1703 1709 1788 1958 2123 2226 2205 2332 2514 2557 2634 2651 2708 2602 2119 2181 2129 2062 1965 1800 1862 1930 1890 1911 1915 2160 2415 2521 2638 2567 2718 2732 2860 3017 2948 2954 2881 2619 2606 2595
0 0 0 0 0 0 0 787 763 629 927 898 626 596 384 779 1087 1038 972 699 739 768 764 755 652 449 368 356 431 472 490 652 599 668 743 641 516 429 386 542 654 789 1231 1231 1163 1245 1303 1240 1260 1350 1345 1557 1480 1404 1458 1539 1559 1506 1708 1720 1899 2070 2149 2154 2178 2287 2478 2502 2531 2568 2687 2559 2455 2215 2116 1955 1897 1911 1784 1943 1908 1910 2126 2305 2419 2590 2558 2448 2604 2676 3052 2901 2930 2787 2556 2563 2534
0 0 0 0 0 0 9 707 630 741 895 840 654 708 595 439 1031 1046 1065 765 741 822 810 792 720 596 386 361 395 413 473 504 554 601 627 580 470 397 361 469 622 734 1020 1192 1198 1319 1401 1408 1454 1450 1543 1418 1612 1424 1535 1604 1707 1882 1874 1925 1926 1939 2026 1942 2159 2144 2051 2461 2547 2556 2561 2589 2475 2203 1997 1893 1874 1945 1906 2088 2007 1926 2018 2326 2394 2461 2520 2376 2501 2631 3001 3068 2907 2523 2550 2554 2371
0 0 0 0 0 0 0 133 816 660 969 980 645 756 394 424 679 1062 1087 778 762 798 848 806 774 706 557 366 384 402 442 468 524 535 560 544 457 379 360 416 622 731 750 988 1244 1316 1374 1440 1581 1528 1572 1568 1629 1548 1596 1681 1864 2068 1898 1618 1507 2056 1912 1961 2142 2126 1967 2080 2468 2340 2539 2479 2410 1983 1874 1856 1880 1742 1798 1880 1901 1858 1906 2030 2269 2472 2339 2442 2479 2411 2980 3254 2980 2916 2503 2267 2267
0 0 0 0 0 0 0 0 536 646 859 1035 907 820 476 236 742 1092 1032 763 798 803 842 854 810 766 724 498 366 406 447 464 483 518 506 504 468 372 329 444 561 689 760 950 1241 1252 1366 1530 1686 1626 1680 1686 1870 1680 1642 1726 1959 1990 1911 1664 1914 1879 2032 1947 2034 2052 1937 1830 1884 2049 2206 2541 2531 1993 1987 1977 1938 1820 1761 1702 1708 1905 2013 2197 2146 2193 2246 2290 2567 2537 3068 3136 2924 2896 2606 2398 2339
0 0 0 0 0 0 0 0 20 548 720 820 1012 881 876 709 786 1057 996 811 797 825 876 881 862 804 761 657 375 393 426 430 446 498 464 456 418 363 299 345 428 596 734 856 1200 1396 1531 1659 1760 1827 1837 1843 1956 2043 1998 2065 2017 2053 1634 1705 1714 2045 2061 1995 2031 2124 2036 2030 1918 1817 2010 2238 2056 2128 2081 1978 1932 1797 1699 1702 1775 1922 1992 1954 2149 1866 1869 2157 2454 2472 2840 3256 3058 2803 2682 2565 2498
0 0 0 0 0 0 0 0 0 0 479 622 790 920 889 810 815 1074 1025 938 774 813 852 881 903 820 760 702 498 333 405 406 412 423 424 403 400 362 290 266 341 497 616 754 1218 1449 1707 1826 1828 2038 2049 1832 2027 2169 1916 2028 1845 1704 1509 1562 1673 1969 2087 2128 2145 2138 2074 2090 1978 1715 1878 1982 2125 2083 2073 2005 1963 1862 1682 1581 1696 1811 1820 1932 1914 1646 2060 2101 2353 2514 2616 2505 2828 2751 2603 2601 2388
0 0 0 0 0 0 0 0 0 0 19 182 308 489 539 612 827 1086 1146 972 815 762 805 838 865 827 746 718 590 352 348 378 373 362 372 349 330 333 303 260 326 437 620 806 1118 1323 1678 1758 1854 1975 2068 2012 2135 2117 1970 1946 1735 1722 1764 1504 1516 1940 2180 2144 2155 2064 2045 2048 2041 1928 1698 1861 2124 1920 1840 1850 1676 1631 1590 1749 1650 1738 1780 1731 1810 1687 2114 2031 2285 2441 2583 2798 2609 2596 2240 2141 2352
0 0 0 0 0 0 0 0 0 0 0 0 190 282 446 511 760 888 1121 1044 998 941 755 782 807 808 759 712 613 433 307 281 256 269 287 282 264 267 250 258 327 441 648 784 933 1193 1656 1683 1797 1879 2145 2059 2090 2180 2222 2172 2056 1734 1660 1609 1790 1784 2049 2106 2149 2178 1923 1880 1943 1624 1464 1696 1897 1805 1744 1561 1625 1686 1764 1571 1640 1710 1644 1735 1887 1804 1928 2326 2384 2323 2308 2608 2723 2555 2357 1903 2306
0 0 0 0 0 0 0 0 0 0 0 0 0 0 0 0 88 696 1108 1113 1126 1054 968 852 755 760 711 673 622 507 321 264 167 196 226 222 224 206 213 225 292 385 567 621 833 1122 1503 1740 1901 2074 2081 2073 2098 2217 2401 2334 2262 2051 1674 1854 1700 1816 1953 1977 1907 2101 1994 1840 1920 1784 1455 1680 1750 1714 1706 1537 1701 1666 1735 1616 1576 1648 1658 1731 1868 1866 1962 1847 2576 2406 2492 2425 2391 2605 2477 2663 2882
0 0 0 0 0 0 0 0 0 0 0 0 0 0 0 0 0 81 885 1066 1202 1160 1062 1003 739 742 666 599 585 540 304 183 136 169 171 158 190 185 159 192 277 329 556 600 748 1041 1317 1616 1912 2120 2079 2031 2175 2300 2268 2311 2216 2236 2023 1973 1925 1800 1990 2129 2092 2088 2033 1909 1971 1800 1762 1650 1568 1796 1608 1572 1632 1444 1842 1769 1777 1812 2003 1995 2110 2075 2072 1792 2601 2704 2500 2476 2505 1952 1464 1456 1966
0 0 0 0 0 0 0 0 0 0 0 0 0 0 0 18 0 0 31 817 1099 1215 1119 1052 783 737 682 616 542 516 506 210 138 108 115 120 141 141 147 165 206 326 486 622 770 922 1064 1471 1848 1948 2036 2051 2188 2245 2269 2311 2112 2001 1926 1833 1863 1975 1916 1980 2031 2059 2126 2225 2142 2028 1908 1883 1935 2047 2062 2116 2215 2154 1763 1835 1729 1953 2084 2181 2234 2422 2228 2458 2751 2703 2740 2762 2691 2063 1173 1116 1708
0 0 0 0 0 0 0 0 0 0 0 0 0 0 0 73 170 3 87 548 1056 1196 1201 1156 1063 784 731 697 657 571 487 470 188 106 82 72 86 116 128 138 162 268 433 567 683 846 985 1394 1690 1867 2017 2024 2012 2122 2280 2170 2004 1972 1929 1918 1920 1901 2021 2152 2044 2177 2161 2208 1993 2168 2179 1985 1974 2112 2181 2299 2179 2385 2346 2160 1822 1902 2079 2307 2369 2424 2287 2516 2784 2731 2669 2637 2649 2931 2572 1581 1333
0 0 0 0 0 0 0 0 0 0 0 0 0 0 0 0 0 31 509 565 960 1162 1191 1226 1176 1043 765 738 704 692 600 506 449 325 98 63 77 91 100 127 131 191 344 468 580 787 1023 1373 1649 1767 1877 1975 1948 2012 2188 2000 2028 1998 1959 1928 1864 1930 2047 2229 2528 2244 2218 2486 2554 2642 2662 2343 2237 2145 2159 2213 2349 2536 2673 2563 2131 2111 2269 2532 2644 2693 2531 2686 2529 2531 2838 2890 2847 3491 2861 2318 1367
0 0 0 0 0 0 0 0 0 0 0 0 0 0 0 0 0 238 686 706 922 1194 1194 1193 1158 1175 967 745 736 735 709 608 527 458 346 116 99 79 89 79 81 111 232 340 466 680 1045 1378 1562 1686 1817 1867 1881 1935 2049 1940 1986 1966 2022 1971 1891 1964 1651 2242 2265 2387 2434 2717 2758 2698 2785 2705 2551 2368 2401 2493 2468 2590 2696 2635 2112 2326 2488 2574 2596 2661 2708 2764 2741 2892 3086 3361 3714 3628 2974 2585 2066
0 0 0 0 0 0 0 0 0 0 0 0 0 0 0 0 154 876 878 962 652 908 1014 1086 1134 1152 1121 1012 743 759 758 698 599 530 460 347 166 114 94 75 62 70 133 270 411 618 971 1237 1418 1584 1743 1824 1951 1891 1946 1909 1934 1975 1985 1939 1974 1826 1802 2019 2044 2040 2412 2567 2747 3024 3082 2954 2980 2777 2627 2762 2689 2829 2888 3014 2647 2488 2536 2574 2774 2870 3001 3049 3089 3094 3469 3648 3585 3826 3158 2764 2659
0 0 0 0 0 0 0 0 0 0 0 0 0 0 0 0 10 44 328 392 335 267 210 626 1023 1071 1070 994 908 748 765 750 667 603 563 462 273 170 122 87 60 40 90 238 324 510 799 1057 1270 1459 1577 1728 1810 1847 1901 1906 1840 1923 1904 1940 1897 2039 1867 1991 1908 2249 2566 2810 2882 3128 3227 3299 3032 3046 2874 2905 3053 2955 3121 3117 3061 3005 2869 2872 3030 3312 3312 3330 3731 3646 3465 3356 3375 3237 3709 3164 2540
0 0 0 0 0 0 0 0 0 0 0 0 0 0 0 0 6 23 20 12 6 30 51 137 587 987 924 977 910 818 751 774 715 680 664 603 499 297 167 132 109 67 136 230 248 375 559 862 1109 1297 1476 1580 1710 1823 1857 1894 1804 1787 1792 1819 1771 1947 1890 2024 1937 2248 2557 2720 2842 3011 3259 3318 3239 3224 3009 3070 3122 3012 3157 3166 3080 3147 3141 3262 3360 3706 3775 3303 3276 3255 3396 3708 3786 3281 3239 3085 2495
0 0 0 0 0 0 0 0 0 0 0 0 0 0 0 0 0 2 5 6 16 24 20 12 264 501 601 636 1034 720 710 710 685 675 682 667 592 507 387 234 216 188 197 234 219 330 502 737 978 1254 1430 1495 1602 1672 1798 1809 1728 1728 1715 1767 1762 1876 1963 1754 1854 2065 2395 2545 2720 3036 3310 3387 3298 3383 3495 3255 3102 2885 3185 3065 3133 3266 3331 3409 3544 3817 3949 3642 3394 3339 3251 3480 3442 3578 3604 2913 2449
0 0 0 0 0 0 0 0 0 0 0 0 0 0 0 0 0 0 0 0 3 15 16 7 1 316 491 582 649 642 715 717 666 706 680 651 641 573 521 421 447 457 379 311 240 284 405 715 974 1204 1360 1337 1486 1520 1731 1815 1788 1766 1656 1653 1699 1908 1931 1846 1950 2062 2393 2528 2726 2963 3336 3308 3232 3171 3157 3211 3154 3149 3249 3033 2948 3428 3534 3652 3755 3848 3902 4074 4018 3694 3701 3310 3147 3346 3277 2859 2697
0 0 0 0 0 0 0 0 0 0 0 0 0 0 0 0 0 0 0 0 0 4 20 14 13 5 166 472 759 665 689 683 671 672 685 690 882 716 530 520 502 525 453 412 305 359 448 522 875 1076 1317 1333 1441 1485 1626 1800 1850 1830 1774 1720 1717 1774 1825 1792 1849 1731 1996 2397 2787 2891 2808 2826 3292 3049 3094 3248 3239 3250 3230 3320 3221 3194 3529 3784 4271 4231 4066 4249 4369 3974 3673 3365 3066 3234 3373 2954 2530
0 0 0 0 0 0 0 0 0 0 0 0 0 0 0 0 0 0 0 0 0 1 10 28 23 14 270 473 713 740 632 683 736 741 672 674 726 937 879 874 555 492 408 392 393 498 767 627 941 1071 1319 1317 1370 1449 1546 1690 1723 1787 1852 1733 1727 1681 1574 1660 1731 1683 2061 2194 2241 2460 2870 2697 3003 3240 3416 3564 3681 3709 3677 3677 3549 3437 3482 3611 3897 4228 4214 4254 4473 4066 3885 3629 3257 3250 3337 3057 2683
0 0 0 0 0 0 0 0 0 0 0 0 0 0 0 0 0 0 0 0 0 0 1 11 17 147 357 506 643 734 707 657 702 708 724 728 657 930 939 938 618 619 556 473 477 730 645 773 970 1038 1272 1236 1254 1394 1473 1588 1695 1742 1842 1823 1709 1677 1712 1568 1889 1908 2132 2144 2365 2537 2962 3050 2894 3274 3513 3646 3738 3731 3882 3820 3827 3644 3828 3933 4106 4219 4279 3978 4368 4120 4062 4019 3787 2975 3334 3382 3101
0 0 0 0 0 0 0 0 0 0 0 0 0 0 0 0 0 0 0 0 0 0 0 0 5 2 290 496 590 676 708 680 732 697 745 732 740 688 643 954 830 625 639 616 681 783 744 876 792 983 1130 1173 1162 1391 1427 1460 1695 1722 1827 1759 1621 1603 1491 1438 1275 1349 1097 1566 2111 2388 2504 2514 2705 3064 3191 3341 3420 3561 3788 3749 3585 3373 3935 4042 4110 4176 4144 4124 4328 4064 3718 4193 3776 3154 3479 3327 3031
0 0 0 0 0 0 0 0 0 0 0 0 0 0 0 0 0 0 0 0 0 0 0 0 23 56 43 348 525 654 691 760 736 741 724 752 755 739 721 661 833 596 635 690 865 633 983 879 735 866 1030 1109 1058 1209 1244 1402 1605 1627 1721 1708 1703 1566 1310 1224 1163 1226 1175 1374 1710 2119 2087 2512 2488 2490 2696 2673 3088 3353 3588 3622 3706 3717 3700 3790 3755 3746 3982 3977 4240 3793 3836 4128 3672 3901 3708 3576 3397
0 0 0 0 0 0 0 0 0 0 0 0 0 0 0 0 0 0 0 0 0 0 0 0 0 0 72 0 106 411 576 671 747 777 807 774 804 794 760 748 666 544 528 612 672 675 618 546 729 674 798 836 880 856 1064 1278 1388 1353 1468 1564 1617 1555 1393 1335 1251 1326 1357 1222 1033 1399 1664 1993 2177 2482 2768 2936 3091 2984 3305 3492 3717 3758 3871 3894 3921 3727 3990 3949 4113 3853 3573 3739 3889 4206 3901 3704 3764
0 0 0 0 0 0 0 0 0 0 0 0 0 0 0 0 3 5 4 0 0 0 0 0 0 0 18 9 101 0 91 447 642 779 811 830 795 804 820 812 747 651 608 494 592 645 633 618 695 518 705 815 830 808 1082 1272 1259 1220 1255 1464 1585 1604 1556 1419 1464 1486 1165 1087 1094 1065 1220 1483 1865 1991 2172 2732 2773 2758 2912 2986 3161 3232 3121 3335 3691 3581 3676 3887 3993 3765 3381 3115 3136 4126 3982 3830 3335
0 0 0 0 0 0 0 0 0 0 0 0 0 0 0 0 10 4 3 0 0 0 0 0 0 4 15 56 233 138 61 114 148 435 799 843 835 820 822 830 833 819 774 666 641 602 687 626 639 632 660 730 737 718 938 1224 1147 1237 1377 1482 1447 1518 1442 1336 1290 1257 1197 1100 1138 1193 1060 1078 1571 1660 1867 2120 2424 2518 2739 2776 2658 3095 3042 3226 3762 3615 3556 3719 3844 3877 3818 3734 3477 4121 3937 3612 3693
0 0 0 0 0 0 0 0 0 0 0 0 0 0 0 0 23 1 0 0 0 0 0 0 0 2 9 0 32 270 243 247 252 227 350 729 817 822 846 842 878 859 840 790 744 681 638 700 650 678 691 607 500 689 865 1050 1160 1199 1247 1297 1254 1272 1334 1270 1170 1197 1216 1099 1084 1152 1217 1270 1286 1496 1739 1657 2066 2088 2496 2607 2527 3031 3346 3445 3908 3955 3531 3503 3691 3726 3756 3475 3702 4016 4008 3781 3702
Wind_Speed
nan nan nan nan nan nan nan nan nan 14 nan 16 15 14 12 15 13 11 8 9 7 9 8 5 6 7 9 10 6 2 6 10 11 12 6 5 5 6 9 10 11 10 9 8 6 7 7 10 9 8 8 8 8 9 10 10 11 11 11 12 12 11 11 11 10 10 9 8 7 6 5 4 2 2 2 3 4 6 7 7 9 9 10 10 10 9 9 8 8 9 8 9 13 15 15 15 15
nan nan nan nan nan nan 16 15 15 14 16 16 12 15 13 12 13 10 8 9 7 7 6 5 4 4 3 4 7 7 5 8 11 8 6 3 6 6 8 11 12 12 10 8 7 7 7 10 10 7 8 8 9 9 10 11 11 13 13 13 13 12 11 11 10 10 10 8 6 5 4 4 6 16 19 18 17 13 14 19 19 18 14 12 12 10 9 8 10 12 9 9 12 14 11 9 13
nan nan nan nan nan nan 12 nan 15 13 13 11 12 13 13 9 7 7 6 6 5 5 5 3 1 5 6 9 7 11 8 7 4 5 4 8 8 8 9 10 11 11 10 8 8 9 8 9 8 8 8 9 9 9 10 11 11 12 12 12 11 11 11 10 10 10 9 8 5 4 7 16 21 16 11 11 9 13 20 21 17 14 14 12 9 8 8 9 8 5 7 6 9 11 7 4 9
nan nan nan 19 15 15 14 13 13 13 10 11 12 11 10 8 5 5 5 5 7 7 6 5 5 12 12 5 6 4 4 6 6 8 6 10 6 10 9 10 10 10 9 8 8 8 7 8 7 7 9 9 9 9 9 10 10 10 11 10 10 10 10 10 9 8 8 7 7 16 20 18 12 3 4 4 6 11 16 12 10 11 11 9 6 6 6 5 5 2 6 7 7 7 5 6 8
nan nan nan 17 15 13 13 13 11 11 8 11 10 10 7 5 5 5 5 7 8 6 5 6 5 6 5 3 8 10 7 5 8 8 7 6 6 9 9 9 10 9 9 8 7 7 6 6 7 8 9 9 9 8 9 9 9 9 9 10 10 10 10 9 8 7 6 10 18 14 11 8 4 3 2 2 7 12 15 8 5 5 5 3 2 3 2 3 2 1 5 8 7 7 6 6 4
nan nan nan 16 14 10 14 15 10 7 7 10 9 8 7 6 5 4 5 6 7 5 4 6 7 11 8 8 9 7 10 9 10 8 9 5 9 9 9 8 9 8 7 6 7 7 6 7 7 8 8 8 8 9 9 9 9 9 9 10 10 10 9 9 7 7 9 22 14 6 4 7 6 4 4 4 8 10 11 5 5 4 4 1 1 1 4 2 1 2 1 5 6 7 6 7 7
nan nan 17 17 15 13 11 11 10 10 6 9 7 7 6 5 5 4 4 4 6 5 10 6 7 8 5 8 5 5 9 6 11 9 8 9 8 9 9 7 7 6 6 6 6 6 6 7 8 8 8 8 8 9 9 8 8 9 9 9 9 8 8 7 6 6 13 15 9 5 6 8 9 4 3 5 9 8 7 3 4 3 3 1 2 2 1 3 3 3 4 4 3 4 6 8 8
12 14 12 13 12 15 12 12 11 10 6 8 7 4 5 6 6 4 5 7 8 9 6 6 7 3 4 12 8 7 8 10 6 7 8 10 10 9 9 7 7 6 5 5 6 5 5 7 7 8 8 8 8 8 8 8 8 7 8 8 7 6 6 6 5 6 11 7 4 4 8 8 6 5 4 4 5 8 7 3 5 4 3 5 3 1 3 5 5 6 4 3 3 7 7 9 9
11 13 12 12 10 12 12 9 7 7 5 5 3 2 4 6 5 5 4 3 4 4 6 7 8 7 7 4 4 7 7 7 7 8 11 11 10 9 8 8 7 6 5 5 5 6 5 5 7 8 8 8 8 8 7 7 7 7 8 8 7 7 6 5 4 6 11 7 6 5 5 5 6 5 4 3 4 6 6 5 4 7 4 1 2 5 4 6 6 7 5 3 2 5 4 7 9
8 10 9 8 9 9 11 8 8 3 3 2 0 2 4 5 4 3 4 6 5 6 4 7 8 3 6 2 5 9 9 10 10 10 11 10 9 8 8 8 6 5 4 5 6 6 5 4 5 6 7 7 7 7 6 7 7 7 7 8 7 8 6 4 4 2 6 5 5 6 3 3 5 4 4 2 5 5 6 5 2 5 6 5 5 4 5 5 4 4 5 5 4 2 3 7 9
7 9 9 8 5 8 7 7 6 4 1 1 0 1 2 4 5 3 2 5 5 4 3 3 3 8 6 2 6 8 9 11 13 13 11 9 8 8 7 7 6 5 4 5 6 6 5 5 4 5 6 6 6 6 6 6 6 7 8 8 8 7 7 6 4 1 3 4 3 4 3 2 2 3 3 3 5 7 6 5 6 7 10 11 12 9 7 3 4 6 6 6 5 2 2 7 7
7 7 7 4 4 8 8 7 7 5 3 4 2 3 5 3 4 4 5 6 5 5 6 8 6 10 6 5 5 8 9 11 14 13 11 8 7 7 7 8 7 5 4 5 5 6 5 5 6 6 5 4 4 5 5 6 7 8 8 8 7 8 8 7 4 3 0 2 1 1 3 3 3 3 3 4 5 5 5 6 6 8 8 11 7 8 7 6 5 5 7 7 7 6 2 3 5
7 7 4 4 4 9 10 10 6 6 4 4 3 4 4 4 5 4 3 2 4 5 7 7 12 9 7 7 7 8 10 11 12 14 11 7 6 7 7 8 8 6 5 5 5 5 6 7 7 7 5 4 5 5 5 7 8 7 8 8 7 8 8 7 5 4 3 1 1 1 2 4 1 4 5 6 5 6 6 5 5 7 10 7 9 9 6 6 5 6 7 7 8 7 4 3 5
6 5 4 3 5 9 10 7 8 6 4 3 5 3 5 4 3 3 2 3 5 5 5 6 7 5 8 8 10 9 8 11 13 13 8 6 6 6 7 8 7 7 6 6 6 6 7 9 8 6 7 8 7 6 6 7 8 8 8 7 7 7 6 6 4 3 4 2 2 1 1 2 2 1 3 3 5 4 5 4 4 7 6 2 9 7 5 6 6 5 6 7 8 7 5 5 5
7 6 4 4 5 7 7 7 6 5 3 5 3 4 4 4 2 3 4 4 1 4 0 3 4 9 11 15 12 11 9 11 12 10 7 5 5 5 6 8 8 8 8 7 7 8 9 10 9 7 8 8 7 8 7 6 8 8 7 6 7 6 6 4 2 5 3 5 3 3 3 2 2 2 3 4 4 4 5 5 6 8 5 1 8 8 3 4 5 5 5 5 5 7 7 6 5
7 7 5 4 4 6 2 6 7 6 2 5 2 3 2 2 3 3 7 8 2 1 3 3 7 10 10 14 15 13 10 10 10 8 5 4 4 5 6 8 9 9 9 9 9 10 11 10 10 9 8 8 8 7 7 6 6 4 6 5 7 6 4 3 4 5 2 4 4 2 5 4 1 2 2 2 2 3 5 6 6 5 3 4 6 9 2 2 3 5 6 6 5 6 5 4 4
6 6 6 3 3 5 4 5 6 4 1 3 4 4 3 1 4 7 8 3 2 2 4 1 6 8 11 8 16 15 11 8 9 8 5 3 5 6 8 9 10 10 12 11 11 11 11 10 9 9 8 7 7 7 6 5 5 5 5 8 7 7 7 6 5 5 4 4 7 7 7 5 5 6 6 5 3 5 5 6 6 5 6 1 5 4 0 1 2 3 4 5 4 5 5 4 4
6 6 6 3 4 6 8 9 7 3 3 5 7 6 3 1 3 1 1 3 5 3 4 5 5 3 4 9 14 15 12 9 11 9 6 4 5 6 8 10 11 11 12 12 12 12 11 10 8 8 7 7 7 7 7 7 6 6 7 9 9 10 9 8 9 8 7 7 7 9 10 9 8 8 7 6 6 4 3 5 6 5 6 5 3 3 3 2 2 2 2 1 2 3 3 4 4
5 6 6 6 5 7 10 11 8 5 3 6 7 7 5 3 3 2 3 2 3 4 3 7 7 7 9 11 14 14 12 11 11 10 9 8 6 6 7 9 11 11 12 13 13 12 11 10 9 7 6 6 6 5 6 7 7 8 8 9 9 10 9 9 9 9 10 9 9 9 9 9 9 9 8 10 8 7 7 7 5 4 3 4 4 4 3 3 4 3 1 1 2 2 4 5 3
4 7 6 6 6 13 13 12 9 4 2 7 8 7 8 1 2 1 3 5 5 5 6 9 10 12 15 14 13 13 11 9 10 10 9 8 6 7 7 9 11 12 11 13 13 13 11 10 8 7 6 6 6 6 6 7 8 9 9 9 10 11 10 10 10 10 11 10 10 9 9 8 7 8 6 8 9 8 8 8 6 6 6 6 6 4 3 5 4 4 4 3 4 5 6 6 6
8 6 7 7 7 15 10 16 11 2 5 7 6 4 7 5 3 4 2 5 7 5 8 7 13 17 19 17 15 13 11 8 8 9 8 6 6 7 7 9 10 11 11 12 12 13 11 9 8 6 6 6 5 6 6 8 8 9 10 10 11 11 11 11 12 12 12 12 11 10 8 9 9 8 9 11 10 9 9 10 9 8 8 7 6 5 4 4 5 5 5 5 5 5 6 6 7
nan 8 11 13 13 14 15 16 11 3 2 8 6 5 6 2 4 6 6 4 4 7 8 7 12 15 20 20 15 12 11 8 8 9 8 6 7 6 7 8 9 10 10 11 12 11 11 9 8 6 6 6 6 7 7 7 9 9 10 11 11 11 11 12 12 13 13 12 12 11 10 9 9 10 11 12 11 11 11 12 11 10 9 9 9 7 6 6 5 5 5 5 5 5 6 8 8
9 nan nan 12 12 14 14 14 5 1 5 9 8 1 3 3 5 6 8 4 8 0 6 9 12 13 14 16 17 14 13 9 7 9 8 7 6 6 6 8 8 9 10 10 10 11 10 9 7 7 6 6 6 7 7 9 10 10 10 11 12 11 12 12 12 12 13 12 12 12 12 11 10 11 12 12 12 12 11 11 11 10 9 9 8 7 6 6 5 5 6 6 7 7 8 10 10
nan nan 11 14 14 15 16 15 5 4 6 9 5 6 2 3 4 4 7 4 4 3 6 9 12 13 12 13 15 14 14 10 7 8 8 7 7 6 6 7 7 8 9 8 9 9 9 8 7 8 6 6 6 7 8 9 10 10 10 10 12 11 12 12 12 12 12 13 13 13 14 13 12 12 13 13 12 12 11 11 10 10 9 8 8 7 7 7 6 6 7 8 9 10 9 10 10
nan nan 11 nan nan nan nan 12 6 3 1 6 8 6 2 3 5 1 7 1 3 5 7 10 12 13 10 9 13 13 11 7 5 7 7 7 6 5 6 8 6 6 7 7 8 9 9 8 8 8 7 7 7 8 9 9 10 11 11 12 11 12 13 13 12 12 12 13 13 13 14 14 14 14 13 13 12 11 10 10 10 9 8 7 7 7 8 7 7 8 9 10 11 11 11 10 10
nan 11 nan nan nan nan nan nan nan 3 2 6 8 4 3 1 6 4 3 1 4 8 8 10 12 14 11 9 11 13 13 9 3 6 7 7 6 5 6 6 6 6 6 6 7 8 8 8 8 8 8 7 8 9 9 10 10 11 11 12 11 12 12 12 13 13 12 13 13 13 14 15 15 14 14 14 13 11 10 10 9 9 8 8 7 7 9 9 9 9 10 11 12 12 12 12 13
nan nan nan nan nan nan nan nan nan 1 1 6 6 8 6 3 2 4 2 2 6 9 10 10 13 14 11 8 8 10 13 11 5 4 6 7 7 7 7 7 6 6 5 6 6 7 7 8 8 8 7 7 8 9 9 9 10 10 10 11 12 12 12 13 14 13 13 13 13 13 13 14 15 14 15 14 14 12 11 10 10 10 9 8 9 9 10 10 11 11 12 13 13 13 13 14 15
nan 16 nan nan nan nan nan nan nan 4 4 3 4 10 8 4 5 7 1 3 7 9 10 11 12 12 10 10 8 7 9 8 3 3 4 5 7 8 8 8 6 5 5 6 5 5 6 8 7 7 8 8 9 9 9 9 10 10 11 11 12 11 13 15 14 14 14 13 13 13 13 13 14 14 15 15 14 13 12 11 11 10 10 10 11 11 11 11 12 12 12 13 14 14 15 16 17
nan 18 nan nan nan nan nan nan 7 3 10 3 8 11 7 2 5 5 3 3 6 8 10 12 12 11 10 9 7 6 7 9 5 2 4 6 6 8 8 8 6 6 7 5 5 6 7 7 7 7 7 8 10 10 9 10 10 11 12 12 12 12 13 15 15 15 14 13 13 14 13 13 14 14 14 15 15 14 12 12 11 11 11 11 11 11 12 12 12 13 12 14 15 16 16 16 18
nan nan nan nan nan nan nan 17 10 7 11 4 5 7 7 2 4 7 6 4 5 7 8 10 9 9 9 8 6 5 6 8 6 3 4 5 5 6 8 8 8 6 6 5 5 6 6 6 7 7 7 9 10 10 9 10 11 12 13 12 12 12 13 14 14 14 14 14 14 14 13 13 14 15 14 14 14 14 14 13 12 12 12 12 11 12 12 13 13 13 14 16 16 17 16 17 18
nan nan nan nan nan nan nan 20 11 12 12 3 4 9 12 10 5 8 7 7 7 6 8 10 9 9 8 7 5 4 6 8 6 2 3 5 5 6 7 8 8 6 6 5 6 6 6 7 6 6 7 8 9 10 11 10 11 12 13 12 11 12 12 13 14 14 14 14 14 14 14 14 14 15 15 15 15 15 14 14 14 14 14 13 13 12 13 13 14 14 15 17 17 17 17 17 19
nan nan nan nan nan nan nan 22 12 16 15 7 8 11 12 13 6 7 7 6 5 4 6 9 9 9 9 6 5 5 6 7 7 4 2 4 5 6 6 7 6 7 6 6 5 5 7 7 7 6 6 8 9 10 11 11 11 12 12 11 11 12 12 13 14 14 15 14 15 14 14 14 14 15 16 16 16 16 16 15 15 14 14 14 14 13 14 14 14 15 15 17 18 17 17 17 17
nan nan nan nan nan nan nan 25 17 23 15 8 7 16 17 18 11 7 6 6 3 2 3 7 9 11 9 6 4 5 4 6 6 6 3 4 5 6 6 5 5 7 6 5 4 5 7 7 7 7 7 7 8 9 11 10 11 11 11 12 12 11 12 12 13 14 15 15 15 14 14 14 14 15 16 16 17 17 16 16 14 14 14 14 14 13 14 14 15 15 15 16 17 17 18 18 17
nan nan nan nan nan nan nan nan 20 21 15 12 9 14 20 21 13 8 5 5 3 1 3 5 8 8 8 5 4 4 4 4 5 6 5 2 6 4 5 4 5 5 4 5 5 5 6 7 8 7 6 6 7 9 10 10 10 10 10 12 12 11 11 12 13 14 15 15 16 15 14 14 13 15 15 16 16 16 16 15 14 14 14 14 14 14 14 14 15 15 15 15 16 17 18 18 18
nan nan nan nan nan nan nan nan nan 18 17 16 12 12 13 20 17 9 6 4 2 0 2 4 6 8 7 5 4 4 4 3 4 4 6 3 4 4 5 4 4 3 4 4 4 4 4 6 7 6 5 6 6 7 8 8 8 9 11 12 12 12 12 12 13 14 15 15 16 15 14 14 13 14 15 15 15 15 14 14 14 13 13 13 13 13 13 14 14 14 15 14 14 16 17 18 18
nan nan nan nan nan nan nan nan nan nan 17 15 13 14 14 14 15 11 8 5 4 4 2 1 3 6 6 6 5 4 4 4 3 4 5 4 4 5 6 5 4 3 3 3 3 4 4 4 6 5 5 5 5 6 7 8 8 8 10 11 12 13 12 11 12 14 14 14 15 14 14 14 13 13 13 13 13 14 13 13 13 12 12 12 12 13 13 13 13 14 14 14 14 15 15 16 16
nan nan nan nan nan nan nan nan nan nan nan 17 16 15 15 16 14 12 8 7 7 6 4 2 2 4 5 6 7 7 6 4 2 4 5 5 3 4 6 6 4 3 3 2 2 3 4 4 4 5 4 4 5 5 7 7 6 7 10 11 12 12 12 11 12 13 13 13 12 13 13 13 12 12 12 12 12 12 12 12 12 12 11 12 12 13 13 12 13 14 13 13 14 14 14 14 14
nan nan nan nan nan nan nan nan nan nan nan nan 20 18 16 16 16 12 9 7 6 6 4 2 2 3 3 6 8 9 7 3 1 1 4 5 4 2 5 7 5 3 4 3 2 2 2 3 4 3 3 5 6 6 7 7 7 7 8 9 11 12 11 10 11 12 12 10 11 12 12 12 11 11 11 11 11 12 11 11 12 12 12 12 13 13 12 12 12 12 13 13 13 14 13 14 12
nan nan nan nan nan nan nan nan nan nan nan nan nan nan nan nan nan 12 8 6 7 5 3 0 2 1 2 4 7 7 6 5 3 2 3 4 5 3 4 7 6 3 2 2 3 1 1 2 2 2 4 5 6 6 7 8 7 7 8 9 10 12 12 11 11 10 10 10 8 9 10 10 11 11 11 11 11 11 10 10 11 11 12 12 12 12 12 12 12 11 12 13 12 12 13 12 12
nan nan nan nan nan nan nan nan nan nan nan nan nan nan nan nan nan nan 8 7 9 7 4 3 3 3 2 6 4 4 5 4 3 4 4 3 4 3 3 5 6 5 5 3 2 1 2 2 1 1 4 6 6 7 7 7 7 6 8 10 10 13 12 9 9 10 10 9 8 7 8 9 10 11 10 11 11 11 10 10 10 11 12 13 13 12 12 12 12 11 11 11 13 12 11 11 11
nan nan nan nan nan nan nan nan nan nan nan nan nan nan nan nan nan nan nan 7 8 8 7 6 5 2 2 5 2 3 5 5 3 3 5 4 3 2 2 4 5 5 5 5 4 3 4 0 1 2 4 6 7 6 6 5 6 7 9 11 11 11 12 11 10 10 10 8 8 8 7 7 8 9 10 10 10 10 10 10 10 11 12 12 13 13 13 12 12 12 11 11 11 13 11 11 10
nan nan nan nan nan nan nan nan nan nan nan nan nan nan nan nan 22 nan nan 12 7 7 6 5 4 4 5 3 3 2 6 5 5 4 nan nan nan 3 2 2 3 5 6 6 5 3 2 2 1 1 3 5 6 6 5 4 5 6 7 8 8 9 9 9 9 9 8 9 9 6 5 6 7 8 10 10 11 10 9 10 10 11 11 12 13 14 14 13 12 12 11 11 10 11 12 12 10
nan nan nan nan nan nan nan nan nan nan nan nan nan nan nan nan nan nan 18 12 7 6 4 5 5 5 4 5 4 3 6 5 6 6 nan nan nan nan 2 2 3 5 7 7 7 5 2 2 1 1 2 4 4 4 4 4 4 4 4 6 7 7 8 9 10 9 9 9 8 5 6 6 6 8 8 10 10 10 10 9 10 10 10 11 12 13 13 13 12 12 11 11 10 10 10 11 11
nan nan nan nan nan nan nan nan nan nan nan nan nan nan nan nan nan 30 24 15 10 8 9 8 6 4 4 5 4 3 4 5 5 7 6 3 nan nan nan nan nan 5 6 6 6 6 4 2 2 1 2 3 3 2 2 3 3 5 5 6 7 8 8 9 9 9 9 9 8 7 6 7 6 8 8 9 10 10 10 9 9 9 10 10 11 12 12 12 11 11 11 11 11 10 9 11 12
nan nan nan nan nan nan nan nan nan nan nan nan nan nan nan nan 36 37 33 27 29 26 23 17 13 10 9 8 6 4 4 4 5 4 5 4 1 3 nan nan nan nan 5 6 6 7 6 5 3 2 2 2 2 2 2 4 5 5 5 6 7 8 9 10 9 9 9 8 8 7 7 7 7 7 9 9 9 10 10 10 9 9 9 9 10 10 11 10 11 10 10 10 10 10 9 10 11
nan nan nan nan nan nan nan nan nan nan nan nan nan nan nan nan nan nan 36 36 35 35 34 26 17 14 12 15 15 12 8 7 5 5 3 2 1 4 7 nan nan nan nan 5 5 7 7 7 4 3 2 3 2 3 3 5 5 4 5 6 6 7 8 10 10 9 9 8 8 7 6 7 8 8 8 9 9 10 10 10 10 9 9 9 9 10 9 9 9 10 10 11 10 11 10 10 11
nan nan nan nan nan nan nan nan nan nan nan nan nan nan nan nan nan nan nan nan nan nan nan 35 30 16 16 18 21 18 15 11 8 5 4 2 3 2 3 4 3 nan 5 4 4 6 7 7 6 3 3 4 2 3 4 5 4 4 5 5 5 6 6 8 9 9 9 8 8 7 6 6 8 8 9 9 9 9 9 10 11 10 10 8 8 8 8 8 8 9 9 10 11 11 10 11 12
nan nan nan nan nan nan nan nan nan nan nan nan nan nan nan nan nan nan nan nan nan nan nan nan 36 35 21 16 15 18 17 17 13 8 6 4 5 7 5 3 3 4 5 4 3 5 6 7 7 4 4 3 3 2 4 4 3 4 4 3 4 5 5 7 7 7 7 7 7 8 7 7 7 8 9 9 8 8 9 10 10 11 10 9 8 8 8 8 8 8 9 9 10 10 11 11 12
nan nan nan nan nan nan nan nan nan nan nan nan nan nan nan nan nan nan nan nan nan nan nan nan nan 35 35 18 12 13 11 12 13 13 9 7 6 5 7 5 2 4 5 4 2 3 5 7 6 5 5 3 3 2 3 3 3 4 3 3 4 6 5 6 7 7 8 8 8 7 7 6 6 7 7 7 7 6 7 8 9 10 10 10 10 9 8 8 9 8 8 8 8 9 9 9 9
nan nan nan nan nan nan nan nan nan nan nan nan nan nan nan nan nan nan nan nan nan nan nan nan nan nan 35 33 16 14 11 12 13 13 13 10 8 6 5 3 1 3 3 5 4 5 7 7 7 6 6 5 4 3 2 2 3 4 3 3 4 5 6 6 7 8 8 9 9 7 6 6 6 5 5 5 6 5 6 6 7 8 9 10 10 10 9 9 8 8 7 7 7 7 8 8 9
nan nan nan nan nan nan nan nan nan nan nan nan nan nan nan nan nan nan nan nan nan nan nan nan nan nan 40 41 31 16 14 14 15 14 14 13 10 7 6 3 3 3 2 4 6 7 9 8 8 6 8 8 6 5 4 3 3 4 4 4 4 5 6 6 7 8 9 8 8 7 7 7 7 7 7 6 6 6 5 6 6 7 8 9 10 11 11 10 9 9 9 8 8 7 6 7 7
nan nan nan nan nan nan nan nan nan nan nan nan nan nan nan nan nan nan nan nan nan nan nan nan nan 43 42 41 44 44 39 29 16 13 14 14 12 8 7 6 4 3 1 3 4 8 8 9 8 6 7 8 7 7 7 5 5 5 4 3 3 4 7 7 9 9 10 9 8 8 8 8 9 9 8 8 7 6 6 6 6 7 8 9 10 10 11 11 10 10 10 9 8 7 7 6 7
nan nan nan nan nan nan nan nan nan nan nan nan nan nan nan nan nan nan nan nan nan nan nan nan nan nan 45 43 42 42 39 36 35 20 12 12 13 10 9 6 5 3 2 1 4 7 8 9 9 8 8 9 8 8 8 7 7 6 4 4 4 5 5 5 7 7 7 8 9 9 9 9 9 9 9 8 8 7 7 6 6 7 8 10 10 10 11 11 11 10 10 10 10 8 7 7 7
nan nan nan nan nan nan nan nan nan nan nan nan nan nan nan nan nan nan nan nan nan nan nan nan nan nan nan 45 42 40 37 36 34 36 17 11 12 11 9 9 7 6 4 4 4 5 9 10 9 9 9 8 9 10 10 10 8 7 6 5 5 5 6 7 8 8 8 9 9 10 10 10 8 9 9 10 8 7 7 6 7 7 8 9 10 10 11 11 10 11 10 10 11 11 10 9 8
nan nan nan nan nan nan nan nan nan nan nan nan nan nan nan nan nan nan nan nan nan nan nan nan nan nan nan nan 46 43 41 38 39 38 37 20 14 14 15 12 10 9 9 8 7 6 7 8 9 8 8 8 9 10 10 11 10 11 10 7 5 6 8 9 9 9 10 9 8 8 8 9 9 8 9 9 8 7 7 7 7 7 8 8 9 9 11 11 10 10 10 10 10 10 11 10 9
nan nan nan nan nan nan nan nan nan nan nan nan nan nan nan nan nan nan nan nan nan nan nan nan nan nan nan nan 45 nan nan 39 37 40 40 40 23 15 14 13 12 12 10 10 7 8 5 4 7 8 9 12 11 10 12 11 10 11 11 10 8 9 9 9 10 10 9 9 9 8 7 7 7 9 8 7 7 7 7 7 6 6 6 7 7 8 9 10 10 10 10 10 10 9 10 10 10
nan nan nan nan nan nan nan nan nan nan nan nan nan nan nan nan nan nan nan nan nan nan nan nan nan nan nan nan 46 43 nan 39 39 40 42 43 43 23 18 15 14 13 12 10 8 6 6 6 5 5 9 11 11 11 12 12 13 12 12 11 10 9 8 10 9 9 9 10 10 10 9 8 10 8 8 8 7 7 7 7 6 6 5 6 7 7 8 9 9 9 9 9 9 9 8 10 10
nan nan nan nan nan nan nan nan nan nan nan nan nan nan nan nan nan nan nan nan nan nan nan nan nan nan nan nan nan 43 39 39 41 43 43 42 48 46 23 20 18 16 14 11 10 9 6 5 6 5 7 8 9 11 13 14 14 13 11 12 11 11 10 10 8 9 9 10 10 11 11 11 8 9 9 8 7 8 8 7 6 5 5 5 6 7 7 8 8 8 8 9 8 8 8 9 10
Wind_Direction
nan nan nan nan nan nan nan nan nan 55 nan 74 89 96 107 101 101 89 90 61 59 97 86 29 10 19 69 53 44 71 116 37 104 90 101 110 43 352 6 17 17 26 27 37 36 39 29 40 42 345 328 330 333 342 347 348 346 343 345 346 346 344 343 342 343 347 350 358 4 3 359 353 324 283 242 215 207 192 189 190 181 176 183 190 183 191 197 203 214 220 224 242 248 237 223 221 240
nan nan nan nan nan nan 38 41 61 66 71 86 92 101 110 104 86 96 74 78 81 55 41 16 41 90 18 347 7 10 153 131 104 97 94 35 357 19 20 16 17 17 23 33 37 45 29 26 31 353 345 349 354 353 351 348 347 351 353 352 350 348 348 346 346 349 349 352 355 355 329 302 237 212 199 199 200 194 191 198 195 181 184 189 188 184 188 202 216 203 197 205 240 245 233 219 235
nan nan nan nan nan nan 51 nan 67 77 96 102 109 114 97 90 93 94 91 78 42 13 2 344 10 86 31 30 34 83 59 107 65 49 45 5 352 43 23 18 22 20 16 35 35 33 28 22 15 9 358 359 2 360 355 352 353 354 355 354 349 346 347 347 347 347 343 339 331 295 236 223 216 218 216 206 205 208 197 196 183 166 175 196 182 183 188 186 228 206 159 192 219 245 250 210 231
nan nan nan 34 39 45 51 55 69 89 98 109 104 117 106 89 89 77 69 21 1 3 3 31 62 98 73 34 44 10 33 50 63 15 21 27 52 13 22 20 22 30 25 34 37 34 34 11 21 8 2 5 6 2 358 355 357 356 356 355 351 347 348 351 350 342 335 318 262 223 218 225 246 249 306 323 261 252 241 212 170 157 182 185 192 202 184 175 222 249 115 151 223 231 228 189 213
nan nan nan 48 51 44 53 61 78 95 105 110 116 113 105 88 62 43 33 15 20 35 74 47 34 92 94 41 59 69 47 15 16 39 15 40 22 8 17 25 34 33 27 31 33 29 21 2 13 3 3 2 3 1 359 1 3 4 2 0 358 352 350 353 347 335 309 259 232 228 241 260 285 280 260 250 248 243 254 247 130 152 182 201 205 196 161 145 226 245 114 140 173 203 201 183 177
nan nan nan 51 50 46 51 57 70 107 121 106 109 114 95 66 38 27 25 43 47 49 55 52 41 40 62 89 76 39 25 37 20 38 18 29 5 5 13 33 44 42 31 34 38 42 26 6 6 8 7 3 3 2 5 7 10 11 11 8 4 357 352 351 340 331 272 241 240 251 306 272 285 251 227 241 257 248 260 258 107 139 201 285 272 46 71 91 151 10 56 116 160 173 163 153 165
nan nan 46 45 49 50 62 62 75 106 120 105 116 106 67 43 23 5 10 30 84 67 94 56 356 360 32 46 15 55 78 42 28 22 42 352 360 11 19 43 49 47 38 48 50 43 13 20 11 10 8 8 7 7 9 15 17 16 15 15 6 0 0 351 339 315 262 276 294 311 265 267 257 273 243 230 257 276 278 261 117 127 181 113 4 343 92 108 87 63 22 34 42 98 133 139 136
54 66 49 51 52 54 63 73 75 98 116 106 119 79 45 16 12 7 8 30 39 43 68 38 71 69 65 70 56 62 57 55 30 7 354 350 1 18 26 39 50 53 48 63 63 61 13 22 29 19 16 17 16 17 15 21 24 18 18 16 13 6 6 360 345 284 276 293 15 251 234 245 268 262 258 238 243 257 277 267 126 151 200 130 93 36 58 79 83 76 74 18 12 45 26 57 82
44 61 53 54 52 58 64 67 72 84 113 104 127 147 19 4 12 12 11 47 16 43 49 57 78 62 63 29 73 65 53 25 14 358 351 349 5 23 52 43 47 58 57 68 75 66 52 30 34 30 25 26 28 26 26 29 27 22 23 23 22 17 15 14 359 324 307 344 337 301 266 248 252 253 238 201 218 252 265 263 159 151 146 102 179 164 152 107 105 117 137 140 85 62 41 56 69
51 63 62 64 61 58 64 51 56 96 116 135 346 9 19 28 10 32 345 357 21 8 73 109 99 9 8 6 50 66 52 18 4 2 360 355 10 37 45 54 53 39 57 81 84 79 83 40 41 33 34 36 36 37 41 39 33 30 30 33 29 28 26 30 25 359 306 355 351 347 327 261 259 260 265 205 192 224 235 249 196 133 127 172 211 191 112 99 135 117 90 84 70 90 117 93 82
63 56 57 63 53 62 65 58 56 47 76 356 227 138 77 41 11 355 24 348 27 26 29 345 311 343 358 55 100 90 41 19 7 1 3 359 23 39 57 75 72 65 63 75 87 86 79 67 42 49 45 47 50 53 51 52 41 34 41 39 38 39 35 38 34 31 326 8 1 346 320 250 252 226 240 228 208 209 223 221 198 185 185 178 178 156 116 123 113 122 131 129 137 170 204 112 115
74 66 58 64 80 78 71 72 63 53 39 35 67 79 98 47 17 345 349 356 30 19 41 57 29 355 333 15 63 56 43 30 16 3 3 5 38 49 69 88 88 91 82 83 91 95 95 86 84 74 63 70 81 70 57 55 43 35 42 44 39 48 46 41 37 48 35 90 343 221 252 240 178 176 209 223 229 227 216 218 211 211 191 162 161 116 126 143 144 146 134 141 151 164 168 79 89
91 80 52 74 106 76 86 68 43 39 46 77 56 100 91 56 43 358 11 4 33 46 57 78 356 43 4 3 28 29 38 36 25 11 1 18 43 68 84 94 95 98 99 94 95 103 99 100 98 94 114 110 97 82 59 51 47 34 36 39 41 51 53 45 45 52 28 72 183 199 262 280 241 153 191 189 217 218 216 222 245 223 197 198 113 103 129 137 148 163 153 155 158 159 156 138 132
100 131 118 129 96 95 85 69 58 55 61 75 117 77 92 86 55 59 359 346 26 81 105 10 28 8 330 349 8 23 48 46 28 17 12 13 55 72 81 98 97 102 103 100 102 105 107 109 111 123 111 104 102 94 67 54 45 44 35 28 43 49 57 68 55 72 83 76 113 114 200 246 277 184 193 193 184 210 220 203 220 240 252 141 102 116 130 128 139 145 148 155 159 159 158 166 164
110 141 131 131 124 100 76 81 71 68 90 61 89 69 91 141 36 70 71 336 120 132 34 62 46 54 39 9 11 15 32 41 34 26 10 20 51 73 87 102 107 106 105 104 108 110 111 112 115 117 112 100 93 94 86 79 68 48 35 37 49 48 60 60 50 63 83 106 105 145 147 177 222 213 200 202 180 198 218 205 187 206 218 143 114 106 125 141 154 149 149 154 143 148 165 176 187
131 137 143 156 159 127 96 85 69 78 97 66 46 87 140 155 86 87 140 147 213 161 49 90 83 112 29 26 360 350 357 31 44 34 11 12 62 85 98 101 107 109 108 107 113 116 113 113 119 120 113 103 97 92 84 63 78 94 84 48 52 68 65 71 59 73 69 90 98 58 74 80 129 184 207 155 186 190 189 180 190 188 196 318 70 93 89 118 154 168 156 147 158 150 166 176 195
156 142 130 142 219 131 146 116 82 144 115 45 12 41 96 67 134 157 146 147 291 326 168 121 85 100 35 27 345 339 346 21 45 24 9 38 84 101 107 110 110 108 114 111 114 114 111 116 121 123 112 105 96 86 90 100 88 56 65 69 58 66 59 42 52 47 58 80 89 84 77 121 147 145 139 143 148 146 182 195 179 176 159 187 20 58 87 110 158 187 182 168 154 150 172 207 204
158 139 139 126 172 156 153 143 128 123 37 25 25 43 89 36 59 166 228 205 213 235 230 241 217 237 5 338 340 342 346 12 33 20 26 36 74 91 102 110 104 105 109 113 114 113 113 116 116 121 116 102 91 92 93 96 89 80 74 68 70 66 59 52 59 72 74 80 94 106 118 129 129 126 129 135 128 129 182 208 161 153 162 170 160 190 172 172 161 226 216 144 176 161 158 135 166
145 156 136 155 151 172 125 130 117 97 104 10 30 50 81 110 16 43 37 347 311 291 303 295 285 300 314 332 344 351 356 13 31 31 21 21 42 47 84 101 102 109 111 114 114 109 114 116 121 113 111 101 88 86 89 91 78 82 87 77 74 68 66 70 73 73 76 81 91 98 104 109 112 112 123 133 140 177 184 193 158 150 167 153 175 200 192 179 193 200 125 208 213 138 118 115 112
155 147 143 129 144 138 122 131 116 118 337 354 13 46 73 106 90 100 74 349 8 355 354 339 327 330 330 333 351 356 4 16 40 38 30 27 32 39 54 73 95 104 106 112 113 113 111 113 116 109 94 83 84 92 81 86 81 78 82 76 79 79 77 78 80 81 82 85 83 83 93 97 101 105 103 117 122 149 164 168 161 167 177 188 181 160 216 215 199 161 170 154 123 123 124 123 125
207 148 137 167 168 159 149 143 140 119 17 355 5 42 72 44 101 77 332 342 41 38 9 7 340 339 334 336 350 4 4 18 45 50 49 36 35 65 75 87 99 105 110 114 113 110 105 105 101 99 91 82 80 88 77 80 82 82 83 81 81 85 85 83 84 84 84 82 86 90 88 98 108 110 108 110 125 137 132 121 120 127 136 144 122 117 95 73 82 96 96 112 115 116 117 115 108
nan 151 147 142 141 141 138 141 139 178 321 327 341 15 74 62 123 82 9 40 72 40 9 338 331 340 339 338 347 6 6 16 43 56 64 45 35 63 94 116 115 112 111 111 107 107 101 100 98 94 83 82 78 79 78 82 80 83 84 82 80 87 86 84 82 84 86 90 95 99 100 102 111 117 116 115 116 116 116 122 133 136 131 121 106 103 94 84 78 83 94 100 103 100 101 103 100
173 nan nan 131 132 136 142 145 142 295 311 331 340 295 237 50 114 73 36 123 185 227 340 329 326 335 345 340 341 2 11 12 43 53 56 45 44 77 96 107 105 105 107 108 111 112 106 94 92 85 75 76 71 77 80 82 85 88 83 83 83 86 89 87 88 90 93 96 99 100 98 98 99 98 99 100 102 106 112 119 125 123 118 113 108 101 100 96 94 96 104 105 104 99 97 94 92
nan nan 164 143 141 129 132 133 137 92 350 351 320 282 322 46 110 69 59 171 209 310 325 325 320 325 346 351 351 359 11 18 46 67 71 57 43 54 76 97 109 118 109 105 105 106 99 85 82 76 75 70 71 70 78 86 91 86 82 84 90 92 92 96 96 96 91 95 97 97 99 96 91 89 88 90 96 102 107 111 114 111 110 112 112 109 103 105 102 108 109 113 112 111 109 101 95
nan nan 158 nan nan nan nan 146 130 92 74 312 315 319 30 45 162 19 69 146 293 323 325 324 326 332 349 357 350 357 6 17 65 81 103 106 82 89 107 122 121 117 93 95 102 96 85 82 69 69 68 63 71 73 79 90 95 92 83 86 90 88 94 99 99 93 90 89 88 89 90 92 93 94 92 93 94 98 103 109 109 110 112 111 105 107 107 103 107 108 110 112 114 112 109 112 109
nan 146 nan nan nan nan nan nan nan 57 235 311 310 312 280 266 216 97 75 45 323 324 333 333 335 344 352 3 357 359 3 4 45 86 97 117 102 91 103 112 115 100 91 88 88 92 86 77 66 62 68 70 74 77 86 90 97 91 84 86 90 86 90 95 90 87 87 85 83 83 86 90 93 93 93 95 96 100 104 105 106 109 111 109 105 102 103 103 108 108 112 116 119 117 119 121 116
nan nan nan nan nan nan nan nan nan 64 246 324 305 292 295 277 137 160 62 349 327 335 343 347 348 353 355 2 8 8 2 357 11 115 122 127 114 102 100 106 102 104 93 79 82 84 84 73 67 66 68 77 82 82 86 89 94 91 86 88 86 84 85 87 88 89 87 88 84 80 81 84 88 92 96 97 100 101 104 106 109 107 108 113 113 109 107 110 110 113 117 120 121 124 125 124 119
nan 178 nan nan nan nan nan nan nan 216 207 319 283 269 271 249 162 156 272 343 342 341 352 359 0 359 358 360 7 14 14 355 345 108 89 89 110 102 96 112 109 114 88 73 83 85 75 66 64 65 68 73 79 80 87 87 88 85 85 93 88 83 81 86 87 87 86 89 88 82 83 84 89 94 97 100 101 103 106 110 109 108 113 115 116 114 111 109 109 112 118 122 125 125 126 123 119
nan 194 nan nan nan nan nan nan 192 200 209 269 268 261 270 268 157 182 261 322 347 346 1 10 8 4 360 3 9 20 23 6 2 111 109 126 123 114 93 100 99 101 116 79 69 65 63 62 67 69 73 75 78 78 81 85 88 86 87 93 90 83 84 88 88 87 89 89 89 87 83 85 89 91 95 99 102 103 107 110 114 117 118 117 116 118 114 111 110 110 118 121 123 123 124 124 119
nan nan nan nan nan nan nan 193 197 196 207 269 260 210 243 319 211 221 280 310 339 347 10 19 23 12 1 7 19 19 27 19 27 91 143 143 130 114 93 92 88 107 126 117 79 71 77 87 88 85 77 76 79 82 83 87 86 89 93 93 90 86 89 89 90 90 88 87 87 87 89 87 90 91 94 97 102 102 103 107 111 115 118 119 116 113 111 114 115 119 123 121 125 124 125 126 123
nan nan nan nan nan nan nan 193 205 199 202 219 185 183 221 245 272 242 283 309 339 358 14 24 26 21 8 8 24 22 29 38 31 48 139 151 148 131 101 97 93 107 136 115 74 68 66 78 86 92 78 76 77 81 79 85 90 92 93 92 90 88 91 91 91 89 86 85 85 86 86 86 89 90 92 97 98 101 101 104 108 112 115 115 113 114 112 115 117 121 123 123 124 124 126 128 126
nan nan nan nan nan nan nan 199 205 191 194 175 196 183 186 226 263 258 275 303 334 355 18 29 30 30 18 8 21 41 42 37 36 39 115 159 154 145 116 105 100 101 99 102 95 84 70 72 71 80 66 72 79 82 85 90 95 98 99 96 95 91 94 93 93 92 88 85 84 84 82 84 88 89 91 95 98 100 103 104 106 109 112 115 116 113 110 109 114 119 124 124 125 127 127 126 126
nan nan nan nan nan nan nan 204 196 196 205 190 184 197 204 217 221 257 263 292 323 320 18 41 38 31 28 15 31 68 61 44 51 48 52 173 165 153 145 122 101 87 95 97 93 82 77 67 70 70 55 66 77 79 84 90 97 101 102 100 100 99 98 98 98 96 92 88 87 86 81 81 86 88 89 91 95 98 102 105 108 110 113 115 112 111 106 110 111 117 124 128 128 127 125 128 129
nan nan nan nan nan nan nan nan 200 192 194 200 188 185 210 212 220 231 244 281 304 275 359 37 48 48 42 36 35 68 82 62 56 59 60 146 182 159 157 138 95 91 100 88 76 64 65 67 70 73 70 70 85 85 87 94 103 110 111 110 111 107 101 104 103 98 95 92 88 87 82 83 86 90 90 91 95 96 99 102 106 108 112 116 114 112 109 109 112 117 122 126 128 127 128 130 131
nan nan nan nan nan nan nan nan nan 188 190 186 202 187 184 212 226 223 214 240 259 345 344 22 47 46 43 49 43 53 80 63 56 63 58 88 182 179 162 154 131 112 128 72 82 78 75 76 78 70 67 76 92 98 98 106 113 119 119 115 112 108 109 110 107 102 98 95 92 90 85 85 88 90 90 91 94 96 97 99 102 106 115 119 118 114 108 105 110 116 121 124 125 128 130 132 135
nan nan nan nan nan nan nan nan nan nan 192 190 197 197 193 204 227 231 220 223 222 195 199 198 71 62 51 48 44 58 77 60 60 43 50 86 166 186 177 178 163 143 126 89 73 78 79 77 83 82 79 82 104 112 110 112 119 119 117 118 113 110 111 111 106 102 99 95 91 88 87 89 89 92 92 93 94 95 99 100 101 107 113 120 122 118 114 110 109 112 116 123 127 126 127 130 131
nan nan nan nan nan nan nan nan nan nan nan 187 190 193 191 190 220 238 234 227 214 205 204 200 113 72 60 55 45 45 54 65 44 30 41 56 88 177 190 194 177 160 134 100 82 87 89 85 81 73 85 81 100 103 100 97 100 112 119 113 111 112 110 109 103 97 93 93 89 89 89 91 89 91 95 96 95 95 98 101 103 107 114 119 123 123 124 122 118 120 126 129 129 131 132 133 136
nan nan nan nan nan nan nan nan nan nan nan nan 199 191 189 187 210 228 238 227 211 212 206 180 107 79 87 57 48 45 52 92 61 29 39 49 82 121 190 196 200 200 166 152 113 96 108 83 74 83 98 75 80 84 93 91 94 103 111 111 111 113 112 110 106 101 100 98 90 90 91 93 91 95 99 98 97 96 98 101 102 106 114 120 124 130 129 128 121 119 126 128 130 136 137 141 148
nan nan nan nan nan nan nan nan nan nan nan nan nan nan nan nan nan 224 240 230 205 210 228 206 333 42 116 94 74 71 74 79 112 97 55 65 56 68 167 189 199 200 203 139 101 99 112 100 111 95 93 79 82 82 92 97 97 106 111 125 117 122 124 125 125 126 114 108 102 92 93 93 95 101 103 102 104 101 102 103 105 110 113 122 127 132 135 129 127 120 120 128 133 131 135 139 139
nan nan nan nan nan nan nan nan nan nan nan nan nan nan nan nan nan nan 215 220 211 210 202 204 263 309 33 54 59 83 81 98 103 126 107 93 70 90 149 176 190 197 204 190 161 126 195 162 169 93 91 88 94 88 94 106 111 123 126 135 134 130 137 143 140 129 119 115 111 105 96 93 97 108 107 107 110 108 108 108 111 114 116 121 128 135 138 135 134 129 122 124 130 133 133 143 141
nan nan nan nan nan nan nan nan nan nan nan nan nan nan nan nan nan nan nan 218 220 223 220 208 216 223 174 176 127 60 52 61 75 123 142 134 108 107 128 151 177 191 202 212 208 202 188 297 279 54 88 84 97 99 98 129 148 147 150 154 152 148 150 152 145 127 119 118 119 110 104 95 103 118 118 115 117 115 114 115 117 118 120 122 126 132 136 138 138 136 130 128 124 134 136 137 140
nan nan nan nan nan nan nan nan nan nan nan nan nan nan nan nan 207 nan nan 235 231 235 242 238 243 245 230 178 113 75 62 57 38 28 nan nan nan 150 139 139 156 178 190 200 205 201 197 230 302 50 109 94 100 105 107 140 149 154 155 145 137 134 134 140 131 122 119 113 113 123 117 110 114 124 127 125 122 125 119 119 120 122 122 124 126 132 136 139 141 137 135 131 128 130 137 136 134
nan nan nan nan nan nan nan nan nan nan nan nan nan nan nan nan nan nan 217 229 244 240 237 238 247 249 240 195 187 117 69 64 56 47 nan nan nan nan 157 173 164 175 186 197 197 185 185 228 291 353 103 101 112 122 106 146 146 133 100 98 105 113 127 145 151 142 133 134 135 132 133 126 126 130 133 131 132 130 130 129 126 124 128 131 131 132 131 131 139 138 143 137 138 146 140 142 141
nan nan nan nan nan nan nan nan nan nan nan nan nan nan nan nan nan 203 199 207 215 208 203 198 195 224 228 201 193 120 94 74 75 61 48 40 nan nan nan nan nan 179 188 195 192 182 176 190 228 218 149 105 112 131 83 94 99 98 95 103 117 125 136 157 160 148 145 146 138 136 142 139 142 142 143 141 138 134 135 135 129 128 130 132 132 131 131 136 142 142 138 137 144 144 147 147 150
nan nan nan nan nan nan nan nan nan nan nan nan nan nan nan nan 205 206 207 208 202 193 190 186 172 173 178 169 161 133 105 82 80 85 65 64 163 212 nan nan nan nan 194 194 192 184 179 179 192 188 164 130 117 49 53 55 84 96 101 118 130 143 151 161 167 158 152 149 141 147 147 151 154 153 148 148 145 143 140 140 134 130 131 130 129 131 132 136 136 137 135 135 134 139 140 146 146
nan nan nan nan nan nan nan nan nan nan nan nan nan nan nan nan nan nan 205 207 197 191 190 186 181 181 176 168 165 160 149 131 107 81 69 60 187 208 223 nan nan nan nan 209 200 191 186 186 182 181 165 166 134 63 72 58 68 111 120 125 123 149 162 167 168 168 159 160 150 150 156 157 157 160 157 152 153 148 147 143 143 138 135 135 136 138 137 139 138 136 130 128 131 134 145 141 137
nan nan nan nan nan nan nan nan nan nan nan nan nan nan nan nan nan nan nan nan nan nan nan 195 195 195 193 189 172 161 150 148 143 115 95 35 3 325 260 254 251 nan 232 243 214 199 193 184 184 181 166 182 153 78 73 73 81 105 121 123 120 139 158 167 172 169 170 170 162 158 163 172 169 167 166 164 154 155 154 150 148 150 148 149 145 145 141 140 138 132 133 133 137 136 145 143 137
nan nan nan nan nan nan nan nan nan nan nan nan nan nan nan nan nan nan nan nan nan nan nan nan 195 195 200 214 177 154 150 153 148 138 119 69 28 20 360 341 271 263 248 249 220 216 205 191 190 184 186 194 178 109 83 94 104 97 112 125 125 141 161 168 162 164 173 172 171 172 180 190 188 180 173 171 164 159 163 155 148 152 153 154 156 155 154 153 150 146 140 141 143 146 150 146 139
nan nan nan nan nan nan nan nan nan nan nan nan nan nan nan nan nan nan nan nan nan nan nan nan nan 192 193 194 187 169 153 142 150 147 133 99 69 46 31 20 282 249 235 250 239 216 210 206 202 193 189 198 189 145 93 95 115 111 121 131 136 158 157 161 162 166 180 181 185 184 191 192 202 190 178 170 169 166 175 163 153 159 161 162 165 170 167 164 162 156 150 141 143 147 149 142 144
nan nan nan nan nan nan nan nan nan nan nan nan nan nan nan nan nan nan nan nan nan nan nan nan nan nan 193 189 191 185 178 166 163 149 140 126 111 105 83 66 200 211 228 235 230 212 208 208 207 193 188 205 203 184 141 135 115 127 148 162 165 166 156 160 165 167 180 186 191 188 185 192 201 194 192 182 181 188 186 185 173 162 165 170 176 178 177 175 172 163 161 152 146 151 154 144 146
nan nan nan nan nan nan nan nan nan nan nan nan nan nan nan nan nan nan nan nan nan nan nan nan nan nan 202 201 201 198 191 189 179 159 147 137 139 131 131 144 175 189 202 225 226 223 223 219 218 205 197 200 204 198 192 177 165 146 160 174 184 176 160 166 165 175 191 193 188 186 192 193 195 204 202 201 207 212 209 204 194 180 178 175 180 183 187 186 181 177 174 165 156 160 153 153 153
nan nan nan nan nan nan nan nan nan nan nan nan nan nan nan nan nan nan nan nan nan nan nan nan nan 201 204 208 207 202 195 193 194 181 164 148 155 167 153 153 168 172 187 215 240 234 234 226 230 224 215 214 203 203 199 200 188 179 179 185 179 176 178 174 177 185 191 194 194 190 194 195 196 209 209 209 214 215 218 214 205 194 193 193 190 188 189 189 189 183 180 178 165 172 165 156 152
nan nan nan nan nan nan nan nan nan nan nan nan nan nan nan nan nan nan nan nan nan nan nan nan nan nan 205 208 206 201 194 196 196 189 188 165 170 174 160 151 154 134 134 161 221 240 245 239 240 234 224 220 214 208 207 209 203 198 191 189 186 176 169 166 164 171 173 189 189 187 187 189 199 204 209 212 211 216 217 217 211 203 209 206 202 197 195 192 192 186 180 180 173 176 180 168 160
nan nan nan nan nan nan nan nan nan nan nan nan nan nan nan nan nan nan nan nan nan nan nan nan nan nan nan 206 206 201 195 192 192 190 185 185 180 178 165 161 146 139 124 126 197 229 229 236 247 251 242 241 231 221 212 209 211 207 202 198 192 177 169 166 174 181 187 193 190 188 186 194 193 200 204 208 213 217 219 221 213 214 214 214 208 202 201 198 196 190 187 184 180 186 185 182 178
nan nan nan nan nan nan nan nan nan nan nan nan nan nan nan nan nan nan nan nan nan nan nan nan nan nan nan nan 206 205 200 199 196 193 192 187 198 192 188 175 163 161 169 167 179 193 210 223 232 247 256 257 255 239 230 217 217 212 210 208 202 191 180 180 185 191 193 187 179 186 179 184 195 200 205 208 210 208 216 219 212 210 217 220 220 210 211 206 203 194 195 191 193 195 191 184 189
nan nan nan nan nan nan nan nan nan nan nan nan nan nan nan nan nan nan nan nan nan nan nan nan nan nan nan nan 208 nan nan 203 201 199 197 191 182 196 197 191 181 185 185 178 173 172 165 193 224 226 234 240 247 251 245 240 234 223 222 220 211 201 194 189 193 199 189 180 179 182 183 186 187 197 199 209 208 207 213 214 211 203 204 216 226 221 217 214 210 200 197 193 198 203 194 188 188
nan nan nan nan nan nan nan nan nan nan nan nan nan nan nan nan nan nan nan nan nan nan nan nan nan nan nan nan 209 207 nan 207 208 208 205 198 189 186 199 204 196 194 197 192 176 161 157 170 190 216 237 245 250 251 247 242 237 230 233 239 231 218 202 193 187 193 193 189 187 188 190 185 204 199 205 210 214 214 216 215 203 203 199 214 228 232 227 222 215 208 202 199 199 209 200 196 197
nan nan nan nan nan nan nan nan nan nan nan nan nan nan nan nan nan nan nan nan nan nan nan nan nan nan nan nan nan 208 208 208 211 214 214 209 201 192 193 211 208 207 209 198 182 178 166 162 169 191 213 227 240 242 240 242 240 234 237 236 235 229 218 204 193 195 195 195 193 197 198 204 202 204 211 208 214 214 216 217 210 204 204 211 228 238 238 232 225 218 210 210 208 213 211 204 204